Flag Weather past 2 weeks in Montpellier, France

Now
59 °F

Clear.


Feels Like: 57 °F
Forecast: 51 / 56 °F
Wind: 13 mph from East

Location: Montpellier Airport

Current Time: Nov 29, 2014 at 2:54:43 AM

Latest Report: Nov 29, 2014 at 2:30 AM


Visibility: N/A

Pressure: 29.65 "Hg

Humidity: 82%

Dew point: 54 °F

Location of MontpellierLocation

Historic Weather in Montpellier — Graph

°F

Montpellier temperature yesterday

Maximum temperature yesterday: 64 °F (at 12:09 PM)
Minimum temperature yesterday: 52 °F (at 1:30 AM)
Average temperature yesterday: 60 °F

Past Weeks' High & Low Weather Summary

 TemperatureHumidityPressure
High66 °F (Nov 14, 6:30 PM)100% (Nov 25, 10:30 AM)30.21 "Hg (Nov 25, 10:30 AM)
Low41 °F (Nov 19, 2:00 AM)48% (Nov 16, 3:00 PM)29.45 "Hg (Nov 28, 1:00 PM)
Average56 °F82%29.90 "Hg
* Reported Nov 14 1:00 AM — Nov 29 1:30 AM, Montpellier, Weather by CustomWeather, © 2014

Note: Actual official high and low records may vary slightly from our data, if they occured in-between our weather recording intervals... More about our weather records

Advertising

Montpellier weather history for previous 24 hours

 ConditionsComfort  
Time TempWeatherWind HumidityBarometerVisibility
1:30 AM
Nov 29
59 °FClear.13 mph82%29.65 "HgN/A
1:00 AM59 °FClear.13 mph82%29.65 "HgN/A
12:30 AM59 °FClear.12 mph82%29.65 "HgN/A
12:00 AM59 °FPassing clouds.12 mph82%29.65 "HgN/A
11:30 PM
Nov 28
59 °FPassing clouds.13 mph82%29.65 "HgN/A
11:00 PM59 °FPassing clouds.13 mph82%29.65 "HgN/A
10:30 PM59 °FPassing clouds.14 mph82%29.65 "HgN/A
10:00 PM59 °FPartly cloudy.15 mph88%29.65 "HgN/A
9:30 PM59 °FPassing clouds.18 mph88%29.62 "HgN/A
9:00 PM59 °FPartly cloudy.18 mph88%29.62 "HgN/A
8:34 PM61 °FThunderstorms. Partly cloudy.29 mph83%29.59 "Hg1 mi
8:00 PM61 °FPartly cloudy.21 mph83%29.59 "HgN/A
7:00 PM63 °FPartly cloudy.31 mph83%29.56 "HgN/A
6:30 PM63 °FPartly cloudy.30 mph83%29.56 "HgN/A
6:00 PM61 °FPartly cloudy.32 mph88%29.56 "Hg5 mi
5:30 PM63 °FPartly cloudy.31 mph83%29.53 "HgN/A
5:00 PM63 °FBroken clouds.36 mph83%29.53 "HgN/A
4:30 PM63 °FBroken clouds.38 mph83%29.50 "Hg5 mi
4:00 PM63 °FBroken clouds.40 mph83%29.47 "Hg5 mi
3:38 PM63 °FBroken clouds.37 mph83%29.50 "Hg2 mi
3:00 PM63 °FBroken clouds.38 mph83%29.47 "Hg2 mi
2:30 PM63 °FBroken clouds.37 mph83%29.47 "Hg2 mi
2:00 PM63 °FBroken clouds.36 mph83%29.45 "HgN/A
1:30 PM64 °FBroken clouds.37 mph78%29.45 "Hg3 mi
1:00 PM63 °FBroken clouds.36 mph83%29.45 "Hg3 mi
12:09 PM64 °FPartly sunny.40 mph78%29.47 "HgN/A
11:30 AM61 °FLight rain. Partly sunny.32 mph88%29.47 "HgN/A
11:00 AM61 °FLight rain. Partly sunny.33 mph83%29.47 "HgN/A
10:30 AM61 °FLight rain. Partly sunny.31 mph83%29.47 "HgN/A
10:10 AM59 °FLight rain. Partly sunny.23 mph88%29.47 "Hg5 mi
10:04 AM59 °FThunderstorms. Partly sunny.23 mph88%29.47 "Hg2 mi
9:44 AM61 °FThunderstorms. Partly sunny.24 mph83%29.47 "Hg2 mi
9:30 AM61 °FThunderstorms. Broken clouds.28 mph83%29.47 "Hg4 mi
9:00 AM59 °FPartly sunny.23 mph88%29.47 "HgN/A
8:30 AM59 °FBroken clouds.24 mph82%29.47 "HgN/A
8:00 AM59 °FBroken clouds.23 mph82%29.47 "Hg4 mi
7:30 AM59 °FPartly cloudy.24 mph82%29.47 "HgN/A
7:00 AM59 °FPartly cloudy.23 mph82%29.47 "HgN/A
6:30 AM59 °FPartly cloudy.24 mph88%29.50 "HgN/A
6:00 AM61 °FLight rain. Passing clouds.30 mph83%29.50 "HgN/A
5:30 AM61 °FPassing clouds.31 mph83%29.50 "HgN/A
4:30 AM61 °FPassing clouds.35 mph83%29.53 "HgN/A
4:00 AM61 °FPartly cloudy.30 mph88%29.53 "HgN/A
3:30 AM61 °FPartly cloudy.32 mph88%29.56 "HgN/A
3:00 AM59 °FPassing clouds.25 mph94%29.56 "HgN/A
2:30 AM54 °FPassing clouds.8 mph88%29.59 "HgN/A
2:00 AM55 °FThunderstorms. Partly cloudy.20 mph94%29.59 "HgN/A
Weather by CustomWeather, © 2014

See weather overviewHow to use our weather pages